Location: City of Moscow
(46.7306°N, 116.9989°W)
Time: 04:12:07
(UTC+00:00)

Orbus 7S? - Pass Details

Date: 11 December 2025
Orbit: 354 x 6170 km, 56.9° (Epoch: 30 September)

Event Time Altitude Azimuth Distance (km) Brightness Sun altitude
Exits shadow 14:45:32 - 293° (WNW) 1,445 4.8 -6.4°
Reaches altitude 10° 14:45:48 10° 290° (WNW) 1,330 4.6 -6.3°
Maximum altitude 14:48:10 31° 224° (SW) 688 3.7 -6.0°
Drops below altitude 10° 14:51:07 10° 158° (SSE) 1,660 6.6 -5.5°
Sets 14:53:57 0° 149° (SSE) 2,960 8.2 -5.1°
